KU4DD Weather Reports


Display with metric or nautical units.
time (UTC)temp
F
wind
direction
speed
MPH
gust
MPH
rain 1hr
in
rain 24hr
in
rain mn
in
humidity
%
barometer
mb
20260503045653 74 8 0.0 0.0 0.00 0.00 0.00 55 1011.9
20260503045141 74 8 0.0 0.0 0.00 0.00 0.00 56 1012.2
20260503044628 74 8 0.0 0.0 0.00 0.00 0.00 55 1012.2
20260503044115 74 8 0.0 0.0 0.00 0.00 0.00 55 1012.2
20260503043605 74 8 0.0 0.0 0.00 0.00 0.00 55 1012.2
20260503043050 73 8 0.0 0.0 0.00 0.00 0.00 56 1012.2
20260503042536 73 8 0.0 0.0 0.00 0.00 0.00 55 1012.2
20260503042024 72 8 0.0 0.0 0.00 0.00 0.00 56 1012.2
20260503041511 72 8 0.0 0.0 0.00 0.00 0.00 56 1012.2
20260503040957 71 8 0.0 0.0 0.00 0.00 0.00 57 1011.9
20260503040444 71 8 0.0 0.0 0.00 0.00 0.00 57 1012.2
20260503035929 70 8 0.0 1.0 0.00 0.00 0.00 58 1011.9
20260503035416 70 8 0.0 1.0 0.00 0.00 0.00 57 1011.9
20260503034901 69 8 0.0 1.0 0.00 0.00 0.00 57 1011.9
20260503034349 69 8 0.0 1.0 0.00 0.00 0.00 57 1011.9
20260503033847 70 8 0.0 1.0 0.00 0.00 0.00 57 1011.9
20260503033331 70 8 0.0 1.0 0.00 0.00 0.00 57 1011.9
20260503032813 70 8 0.0 1.0 0.00 0.00 0.00 57 1011.9
20260503032250 70 8 0.0 1.0 0.00 0.00 0.00 56 1011.9
20260503031733 70 8 0.0 1.0 0.00 0.00 0.00 56 1011.9
20260503031232 70 8 0.0 1.0 0.00 0.00 0.00 56 1011.5
20260503030714 70 8 0.0 1.0 0.00 0.00 0.00 56 1011.5
20260503030152 70 8 0.0 1.0 0.00 0.00 0.00 56 1011.9
20260503025639 70 8 0.0 1.0 0.00 0.00 0.00 56 1011.2
20260503025126 70 8 0.0 1.0 0.00 0.00 0.00 56 1011.2
20260503024611 71 8 0.0 1.0 0.00 0.00 0.00 56 1011.2
20260503024047 71 8 0.0 1.0 0.00 0.00 0.00 55 1011.5
20260503023533 71 8 0.0 1.0 0.00 0.00 0.00 55 1011.5
20260503023005 71 8 0.0 1.0 0.00 0.00 0.00 55 1011.5
20260503022447 71 8 0.0 1.0 0.00 0.00 0.00 55 1011.2
20260503021922 71 8 0.0 1.0 0.00 0.00 0.00 54 1011.5
20260503021410 71 8 0.0 1.0 0.00 0.00 0.00 55 1011.9
20260503020856 71 8 0.0 1.0 0.00 0.00 0.00 54 1011.9
20260503020344 71 8 0.0 1.0 0.00 0.00 0.00 54 1011.5
20260503015830 71 8 0.0 1.0 0.00 0.00 0.00 54 1011.5
20260503015316 71 8 0.0 1.0 0.00 0.00 0.00 55 1011.5
20260503014800 71 8 0.0 1.0 0.00 0.00 0.00 55 1011.2
20260503014238 72 8 0.0 1.0 0.00 0.00 0.00 52 1011.2
20260503013723 71 8 0.0 1.0 0.00 0.00 0.00 55 1011.2
20260503013209 72 8 0.0 1.0 0.00 0.00 0.00 55 1011.2
20260503012652 71 8 0.0 1.0 0.00 0.00 0.00 53 1011.2
20260503012128 72 8 0.0 1.0 0.00 0.00 0.00 55 1010.8
20260503011626 72 8 0.0 1.0 0.00 0.00 0.00 55 1010.8
20260503011109 71 8 0.0 1.0 0.00 0.00 0.00 54 1010.8
20260503010608 71 8 0.0 1.0 0.00 0.00 0.00 55 1010.8
20260503010047 71 8 0.0 1.0 0.00 0.00 0.00 54 1010.8
20260503005530 71 8 0.0 1.0 0.00 0.00 0.00 54 1010.5
20260503005006 71 8 0.0 1.0 0.00 0.00 0.00 56 1010.5
20260503004455 72 8 0.0 1.0 0.00 0.00 0.00 52 1010.5
20260503003953 71 8 0.0 1.0 0.00 0.00 0.00 55 1010.5
20260503003431 72 8 0.0 1.0 0.00 0.00 0.00 54 1010.2
20260503002925 72 8 0.0 1.0 0.00 0.00 0.00 56 1010.2
20260503002410 72 8 0.0 1.0 0.00 0.00 0.00 56 1010.2
20260503001905 72 8 0.0 1.0 0.00 0.00 0.00 56 1009.8
20260503001400 72 8 0.0 1.0 0.00 0.00 0.00 57 1010.2
20260503000853 72 8 0.0 1.0 0.00 0.00 0.00 56 1009.8
20260503000348 72 8 0.0 1.0 0.00 0.00 0.00 56 1009.8
20260502235842 72 8 0.0 1.0 0.00 0.00 0.00 56 1009.8
20260502235328 72 8 0.0 1.0 0.00 0.00 0.00 56 1009.8
20260502234819 72 8 0.0 1.0 0.00 0.00 0.00 55 1009.8
20260502234302 72 8 0.0 1.0 0.00 0.00 0.00 56 1009.8
20260502233755 72 8 0.0 1.0 0.00 0.00 0.00 56 1009.5
20260502233249 72 8 0.0 1.0 0.00 0.00 0.00 55 1009.5
20260502232731 72 8 0.0 1.0 0.00 0.00 0.00 56 1009.5
20260502232226 72 8 0.0 1.0 0.00 0.00 0.00 56 1009.5
20260502231721 72 8 0.0 1.0 0.00 0.00 0.00 55 1009.5
20260502231211 72 8 0.0 1.0 0.00 0.00 0.00 55 1009.1
20260502230659 72 8 0.0 1.0 0.00 0.00 0.00 55 1009.5
20260502230148 72 8 0.0 1.0 0.00 0.00 0.00 55 1009.5
20260502225635 72 8 0.0 1.0 0.00 0.00 0.00 53 1009.5
20260502225112 72 8 0.0 1.0 0.00 0.00 0.00 56 1009.5
20260502224601 73 8 0.0 1.0 0.00 0.00 0.00 54 1009.5
20260502223552 73 8 0.0 1.0 0.00 0.00 0.00 55 1009.1
20260502223036 73 8 0.0 1.0 0.00 0.00 0.00 52 1009.5
20260502222531 72 8 0.0 1.0 0.00 0.00 0.00 56 1009.5
20260502222026 72 8 0.0 0.0 0.00 0.00 0.00 55 1009.1
20260502221520 72 8 0.0 0.0 0.00 0.00 0.00 54 1009.1
20260502221013 72 8 0.0 0.0 0.00 0.00 0.00 54 1009.1
20260502220507 72 8 0.0 0.0 0.00 0.00 0.00 53 1009.1
20260502220001 72 8 0.0 0.0 0.00 0.00 0.00 54 1009.1
20260502215455 72 8 0.0 0.0 0.00 0.00 0.00 55 1009.1
20260502214940 72 8 0.0 0.0 0.00 0.00 0.00 54 1009.1
20260502214435 72 8 0.0 0.0 0.00 0.00 0.00 56 1009.1
20260502213928 72 8 0.0 0.0 0.00 0.00 0.00 53 1009.1
20260502213423 72 8 0.0 0.0 0.00 0.00 0.00 55 1008.8
20260502212917 72 8 0.0 0.0 0.00 0.00 0.00 55 1009.1
20260502212412 72 8 0.0 0.0 0.00 0.00 0.00 54 1009.1
20260502211905 72 8 0.0 0.0 0.00 0.00 0.00 56 1009.1
20260502211401 72 8 0.0 0.0 0.00 0.00 0.00 54 1009.1
20260502210845 72 8 0.0 0.0 0.00 0.00 0.00 57 1009.1
20260502210341 72 8 0.0 0.0 0.00 0.00 0.00 56 1009.1
20260502205749 72 8 0.0 0.0 0.00 0.00 0.00 54 1009.1
20260502205243 72 8 0.0 0.0 0.00 0.00 0.00 58 1009.1
20260502204733 72 8 0.0 0.0 0.00 0.00 0.00 56 1009.1
20260502204230 71 8 0.0 0.0 0.00 0.00 0.00 57 1009.1
20260502203712 71 8 0.0 0.0 0.00 0.00 0.00 57 1009.1
20260502203200 71 8 0.0 0.0 0.00 0.00 0.00 54 1009.1
20260502202654 71 8 0.0 0.0 0.00 0.00 0.00 57 1009.1
20260502202137 71 8 0.0 0.0 0.00 0.00 0.00 55 1009.1
20260502201632 71 8 0.0 0.0 0.00 0.00 0.00 54 1009.1
20260502201126 70 8 0.0 0.0 0.00 0.00 0.00 55 1009.1
20260502200621 71 8 0.0 0.0 0.00 0.00 0.00 53 1009.1
20260502200116 70 8 0.0 0.0 0.00 0.00 0.00 56 1009.1
20260502195559 70 8 0.0 0.0 0.00 0.00 0.00 53 1009.5
20260502195055 70 8 0.0 0.0 0.00 0.00 0.00 54 1009.5
20260502194548 70 8 0.0 0.0 0.00 0.00 0.00 54 1009.5
20260502194033 70 8 0.0 0.0 0.00 0.00 0.00 53 1009.5
20260502193523 70 8 0.0 0.0 0.00 0.00 0.00 55 1009.5
20260502193014 70 8 0.0 0.0 0.00 0.00 0.00 53 1009.5
20260502192457 70 8 0.0 0.0 0.00 0.00 0.00 55 1009.5
20260502191951 70 8 0.0 0.0 0.00 0.00 0.00 53 1009.5
20260502191446 70 8 0.0 0.0 0.00 0.00 0.00 53 1009.8
20260502190940 70 8 0.0 0.0 0.00 0.00 0.00 55 1009.8
20260502190435 70 8 0.0 0.0 0.00 0.00 0.00 53 1009.8
20260502185934 70 8 0.0 0.0 0.00 0.00 0.00 55 1009.8
20260502185430 70 8 0.0 0.0 0.00 0.00 0.00 53 1010.2
20260502184925 70 8 0.0 0.0 0.00 0.00 0.00 54 1009.8
20260502184408 70 8 0.0 0.0 0.00 0.00 0.00 54 1009.8
20260502183852 70 8 0.0 0.0 0.00 0.00 0.00 53 1009.8
20260502183346 70 8 0.0 0.0 0.00 0.00 0.00 54 1009.8
20260502182333 70 8 0.0 0.0 0.00 0.00 0.00 54 1009.5
20260502181802 70 8 0.0 0.0 0.00 0.00 0.00 54 1009.8
20260502181256 70 8 0.0 0.0 0.00 0.00 0.00 53 1010.2
20260502180739 70 8 0.0 0.0 0.00 0.00 0.00 54 1010.2
20260502180232 70 8 0.0 0.0 0.00 0.00 0.00 52 1009.8
20260502170144 70 8 0.0 0.0 0.00 0.00 0.00 53 1010.2
20260502164122 70 8 0.0 0.0 0.00 0.00 0.00 55 1010.2
20260502163517 70 8 0.0 0.0 0.00 0.00 0.00 53 1010.2
20260502163010 70 8 0.0 0.0 0.00 0.00 0.00 55 1010.5
20260502162509 70 8 0.0 0.0 0.00 0.00 0.00 54 1010.8
20260502162003 70 8 0.0 0.0 0.00 0.00 0.00 54 1010.8
20260502161448 70 8 0.0 0.0 0.00 0.00 0.00 55 1010.8
20260502160936 70 8 0.0 0.0 0.00 0.00 0.00 52 1010.8
20260502160421 70 8 0.0 0.0 0.00 0.00 0.00 55 1011.2
20260502152203 70 8 0.0 0.0 0.00 0.00 0.00 100 1010.5
20260502151651 70 8 0.0 0.0 0.00 0.00 0.00 100 1010.2
20260502151141 70 8 0.0 0.0 0.00 0.00 0.00 100 1010.5
20260502150624 70 8 0.0 0.0 0.00 0.00 0.00 100 1010.2
20260502150113 70 8 0.0 0.0 0.00 0.00 0.00 100 1010.5
20260502130522 70 8 0.0 0.0 0.00 0.00 0.00 100 1009.8
20260502123401 71 8 0.0 0.0 0.00 0.00 0.00 61 1009.5
20260502122849 72 8 0.0 0.0 0.00 0.00 0.00 61 1009.5
20260502122336 71 8 0.0 0.0 0.00 0.00 0.00 61 1009.5
20260502121831 70 8 0.0 0.0 0.00 0.00 0.00 61 1009.5
20260502121312 69 8 0.0 0.0 0.00 0.00 0.00 61 1009.5
20260502120811 69 8 0.0 0.0 0.00 0.00 0.00 61 1009.5
20260502120308 69 8 0.0 0.0 0.00 0.00 0.00 61 1009.1
20260502115807 69 8 0.0 0.0 0.00 0.00 0.00 52 1009.1
20260502115254 69 8 0.0 0.0 0.00 0.00 0.00 53 1009.5
20260502114731 69 8 0.0 0.0 0.00 0.00 0.00 54 1009.1
20260502114217 69 8 0.0 0.0 0.00 0.00 0.00 52 1009.5
20260502113702 68 8 0.0 0.0 0.00 0.00 0.00 54 1009.5
20260502113151 68 8 0.0 0.0 0.00 0.00 0.00 53 1009.5
20260502112637 68 8 0.0 0.0 0.00 0.00 0.00 54 1009.5
20260502112124 68 8 0.0 0.0 0.00 0.00 0.00 54 1009.5
20260502111608 68 8 0.0 0.0 0.00 0.00 0.00 53 1009.5
20260502111045 68 8 0.0 0.0 0.00 0.00 0.00 55 1009.5
20260502110532 68 8 0.0 0.0 0.00 0.00 0.00 53 1009.5
20260502110019 68 8 0.0 0.0 0.00 0.00 0.00 53 1009.5
20260502105507 68 8 0.0 0.0 0.00 0.00 0.00 55 1009.5
20260502104944 68 8 0.0 0.0 0.00 0.00 0.00 52 1009.5
20260502104429 68 8 0.0 0.0 0.00 0.00 0.00 55 1009.8
20260502103927 68 8 0.0 0.0 0.00 0.00 0.00 53 1009.8
20260502103404 68 8 0.0 0.0 0.00 0.00 0.00 53 1009.8
20260502102850 68 8 0.0 0.0 0.00 0.00 0.00 54 1009.8
20260502102336 68 8 0.0 0.0 0.00 0.00 0.00 52 1009.8
20260502101822 68 8 0.0 0.0 0.00 0.00 0.00 54 1009.8
20260502101308 68 8 0.0 0.0 0.00 0.00 0.00 53 1009.5
20260502100755 68 8 0.0 0.0 0.00 0.00 0.00 53 1009.8
20260502100239 68 8 0.0 0.0 0.00 0.00 0.00 55 1009.8
20260502091520 68 8 0.0 0.0 0.00 0.00 0.00 53 1009.8
20260502091003 68 8 0.0 0.0 0.00 0.00 0.00 55 1009.5
20260502090441 68 8 0.0 0.0 0.00 0.00 0.00 53 1009.5
20260502071510 69 8 0.0 0.0 0.00 0.00 0.00 55 1008.8
20260502070956 69 8 0.0 0.0 0.00 0.00 0.00 53 1008.8
20260502070445 69 8 0.0 0.0 0.00 0.00 0.00 54 1009.1
20260502065930 69 8 0.0 0.0 0.00 0.00 0.00 55 1009.1
20260502065417 69 8 0.0 0.0 0.00 0.00 0.00 53 1009.1
20260502064906 68 8 0.0 0.0 0.00 0.00 0.00 55 1009.1
20260502064404 69 8 0.0 0.0 0.00 0.00 0.00 54 1009.1
20260502063847 69 8 0.0 0.0 0.00 0.00 0.00 56 1009.1
20260502063326 69 8 0.0 0.0 0.00 0.00 0.00 54 1009.1
20260502062811 68 8 0.0 0.0 0.00 0.00 0.00 56 1009.1
20260502062258 68 8 0.0 0.0 0.00 0.00 0.00 57 1009.1
20260502061743 68 8 0.0 0.0 0.00 0.00 0.00 57 1009.1
20260502061229 68 8 0.0 0.0 0.00 0.00 0.00 56 1009.5
20260502060715 68 8 0.0 0.0 0.00 0.00 0.00 56 1009.5
20260502060159 68 8 0.0 0.0 0.00 0.00 0.00 56 1009.5
20260502055637 68 8 0.0 0.0 0.00 0.00 0.00 57 1009.8
20260502055125 69 8 0.0 0.0 0.00 0.00 0.00 57 1009.8
20260502054612 69 8 0.0 0.0 0.00 0.00 0.00 56 1009.8
20260502054054 69 8 0.0 0.0 0.00 0.00 0.00 56 1009.8
20260502053553 69 8 0.0 0.0 0.00 0.00 0.00 56 1009.8
20260502053031 69 8 0.0 0.0 0.00 0.00 0.00 56 1009.8
20260502052514 69 8 0.0 0.0 0.00 0.00 0.00 57 1009.8
20260502052013 69 8 0.0 0.0 0.00 0.00 0.00 56 1009.8
20260502051449 69 8 0.0 0.0 0.00 0.00 0.00 56 1009.8
20260502050936 69 8 0.0 0.0 0.00 0.00 0.00 56 1010.2
20260502050423 69 8 0.0 0.0 0.00 0.00 0.00 56 1010.2